TimeEST,TemperatureF,Dew PointF,Humidity,Sea Level PressureIn,VisibilityMPH,Wind Direction,Wind SpeedMPH,Gust SpeedMPH,PrecipitationIn,Events,Conditions,WindDirDegrees,DateUTC
12:54 AM,30.0,23.0,75,30.44,10.0,WNW,3.5,-,N/A,,Clear,290,2012-11-14 05:54:00
1:54 AM,28.9,23.0,78,30.44,10.0,WNW,5.8,-,N/A,,Clear,290,2012-11-14 06:54:00
2:54 AM,28.9,23.0,78,30.45,10.0,NW,3.5,-,N/A,,Clear,310,2012-11-14 07:54:00
3:54 AM,28.0,23.0,81,30.46,10.0,Calm,Calm,-,N/A,,Clear,0,2012-11-14 08:54:00
4:54 AM,27.0,23.0,85,30.49,10.0,WNW,3.5,-,N/A,,Clear,290,2012-11-14 09:54:00
5:54 AM,26.1,21.9,84,30.51,10.0,Calm,Calm,-,N/A,,Clear,0,2012-11-14 10:54:00
6:54 AM,27.0,21.9,81,30.52,10.0,Calm,Calm,-,N/A,,Clear,0,2012-11-14 11:54:00
7:54 AM,30.9,24.1,76,30.53,10.0,Calm,Calm,-,N/A,,Clear,0,2012-11-14 12:54:00
8:54 AM,34.0,24.1,67,30.53,10.0,NE,5.8,-,N/A,,Clear,50,2012-11-14 13:54:00
9:54 AM,37.0,21.0,52,30.54,10.0,NE,5.8,-,N/A,,Clear,40,2012-11-14 14:54:00
10:54 AM,39.9,21.9,49,30.52,10.0,Variable,4.6,-,N/A,,Clear,0,2012-11-14 15:54:00
11:54 AM,41.0,21.0,45,30.49,10.0,North,5.8,-,N/A,,Clear,350,2012-11-14 16:54:00
12:54 PM,43.0,21.0,42,30.47,10.0,North,5.8,-,N/A,,Clear,10,2012-11-14 17:54:00
1:54 PM,44.1,21.0,40,30.46,10.0,Variable,3.5,-,N/A,,Clear,0,2012-11-14 18:54:00
2:54 PM,43.0,21.9,43,30.45,10.0,Variable,3.5,-,N/A,,Clear,0,2012-11-14 19:54:00
3:54 PM,41.0,21.9,47,30.47,10.0,NW,5.8,-,N/A,,Clear,320,2012-11-14 20:54:00
4:54 PM,36.0,21.9,57,30.48,10.0,WNW,4.6,-,N/A,,Clear,300,2012-11-14 21:54:00
5:54 PM,33.1,21.9,64,30.49,10.0,Calm,Calm,-,N/A,,Clear,0,2012-11-14 22:54:00
6:54 PM,30.0,21.9,72,30.51,10.0,Calm,Calm,-,N/A,,Clear,0,2012-11-14 23:54:00
7:54 PM,28.9,21.9,75,30.49,10.0,Calm,Calm,-,N/A,,Clear,0,2012-11-15 00:54:00
8:54 PM,28.9,21.9,75,30.49,10.0,Calm,Calm,-,N/A,,Clear,0,2012-11-15 01:54:00
9:54 PM,28.0,21.9,78,30.49,10.0,Calm,Calm,-,N/A,,Clear,0,2012-11-15 02:54:00
10:54 PM,27.0,21.9,81,30.48,10.0,Calm,Calm,-,N/A,,Clear,0,2012-11-15 03:54:00
11:54 PM,27.0,23.0,85,30.46,10.0,Calm,Calm,-,N/A,,Clear,0,2012-11-15 04:54:00